Location: Prague
(50.0830°N, 14.4670°E)
Time: 20:31:14
(UTC+01:00)

HuskySat-1 - Pass Details

Date: 02 December 2021
Orbit: 439 x 453 km, 51.6° (Epoch: 25 January)

Event Time Altitude Azimuth Distance (km) Brightness Sun altitude
Rises 17:44:07 0° 208° (SSW) 2,463 ? -15.6°
Reaches altitude 10° 17:46:36 10° 191° (S) 1,591 ? -15.9°
Enters shadow 17:49:43 20° 132° (SE) 1,096 ? -16.4°
Exits shadow 18:24:59 -65° 54° (NE) 12,080 ? -22.0°
